GFSNIL_925_spd_000.txt.gz
Wind_Speed
31 28 24 21 22 23 20 17 14 14 12 9 8 9 6 6 8 10 7 9 11 12
31 30 27 23 23 23 19 16 15 14 12 13 12 11 10 7 7 6 9 10 12 15
34 32 28 24 25 24 21 19 18 15 14 14 14 13 12 11 10 11 12 15 15 16
37 34 29 27 26 25 22 20 19 18 17 17 16 14 14 13 12 14 15 15 16 17
39 38 34 31 28 25 23 22 20 20 19 19 18 16 15 12 12 14 14 14 14 17
41 41 39 34 29 27 24 22 21 20 20 19 19 16 13 13 13 15 16 16 17 17
44 47 43 35 30 27 24 22 23 22 21 19 17 15 14 14 16 18 19 18 18 16
50 41 31 32 32 22 26 27 24 22 22 20 18 17 16 17 18 19 19 17 17 16
23 26 29 18 27 33 31 31 29 26 24 21 20 18 19 20 21 21 20 19 17 17
26 26 32 25 29 43 30 32 31 28 26 24 21 16 22 21 20 21 21 19 20 20
30 34 33 26 30 33 33 31 26 26 27 25 23 17 22 20 21 20 21 22 20 18
33 38 35 32 35 35 28 26 24 23 24 24 24 22 22 16 22 20 19 18 18 16
33 37 32 26 22 19 16 12 10 6 3 13 30 29 20 20 18 18 15 16 16 14
24 27 17 15 18 15 11 8 8 8 11 16 22 41 24 16 14 14 13 15 14 11

GFSNIL_925_spd_003.txt.gz
Wind_Speed
28 25 23 22 18 16 18 18 18 16 16 16 14 12 12 6 5 8 9 9 9 8
26 26 24 22 25 19 22 18 19 16 17 17 15 14 12 9 7 7 9 11 10 10
27 27 26 25 25 20 19 20 19 19 20 18 16 14 12 11 11 9 10 10 11 11
29 27 24 29 29 24 23 24 21 21 21 18 17 15 14 14 13 12 12 11 11 12
28 33 32 31 23 22 22 22 22 22 21 19 15 14 15 14 15 14 13 12 10 11
28 30 33 32 25 21 16 18 22 22 23 21 17 16 16 17 16 15 13 12 12 13
30 25 22 24 23 18 9 13 24 23 24 21 18 18 16 16 18 17 15 16 15 16
17 17 21 31 33 24 24 24 34 29 26 22 22 19 18 19 18 17 17 16 16 18
19 24 27 32 38 40 32 21 41 33 31 26 26 22 20 21 18 17 17 17 17 19
24 26 33 40 40 37 38 30 42 36 40 35 28 25 22 22 22 18 18 20 21 20
24 25 29 34 36 41 39 34 32 32 30 30 27 26 20 14 15 22 22 18 20 17
24 26 29 33 33 31 27 27 27 19 18 17 19 19 19 15 16 20 29 27 18 14
21 23 27 28 25 20 19 21 15 14 15 18 19 22 23 19 24 23 30 26 15 13
22 25 25 24 19 17 20 17 18 21 25 23 17 18 22 22 25 19 19 17 9 6

GFSNIL_925_spd_006.txt.gz
Wind_Speed
25 24 22 20 18 16 14 13 11 13 11 10 10 9 9 8 8 7 7 6 7 9
25 25 22 19 18 16 14 12 12 14 12 10 11 11 11 11 9 8 8 10 10 12
26 24 23 22 22 22 17 13 12 14 13 13 11 12 13 12 11 11 10 10 10 11
26 25 25 26 24 18 14 12 13 12 13 13 12 14 16 14 12 11 11 12 12 12
26 26 28 26 26 25 20 18 18 10 11 13 12 15 18 17 14 13 14 14 13 12
29 30 29 27 23 24 24 24 24 21 19 18 19 19 20 20 18 15 15 15 14 14
30 27 27 25 28 31 30 30 31 31 27 19 21 22 22 21 19 17 16 16 16 16
23 23 23 25 29 36 37 37 36 35 27 23 23 26 25 22 20 19 18 17 18 18
20 22 25 29 29 31 40 46 38 34 28 24 28 26 26 23 20 19 18 16 16 15
23 25 26 26 27 32 35 31 25 19 20 27 27 26 27 26 22 19 17 14 14 15
22 23 24 26 28 31 31 29 23 17 18 25 27 24 24 23 20 20 17 13 9 9
22 22 21 24 27 30 30 30 25 18 17 23 22 23 26 27 22 22 19 19 18 20
22 23 24 22 22 24 25 25 24 18 19 21 21 22 26 26 25 21 20 19 16 15
21 21 20 20 21 19 19 18 18 18 22 20 25 19 23 27 28 19 11 12 8 7

GFSNIL_925_spd_009.txt.gz
Wind_Speed
25 24 22 21 16 17 13 12 16 16 14 12 10 9 7 8 7 7 6 6 7 8
27 27 25 23 24 17 17 15 16 16 16 14 12 10 9 9 10 7 8 9 10 10
29 28 25 22 21 23 20 21 21 20 19 17 18 16 13 12 11 11 11 11 10 10
30 29 29 27 26 24 22 22 19 23 23 22 20 20 18 14 11 10 11 13 11 11
30 31 31 30 28 28 27 25 26 27 28 26 26 22 18 17 16 14 14 16 16 15
33 32 31 31 30 32 30 29 29 30 30 28 28 25 24 20 18 16 17 16 17 15
34 33 32 31 33 31 32 32 34 33 30 29 28 26 23 21 19 19 18 18 17 16
31 30 30 31 33 31 31 34 34 34 30 28 25 21 22 19 18 20 20 17 16 16
30 30 30 30 28 27 29 29 29 27 27 27 26 22 22 20 18 20 19 18 18 19
28 30 28 26 26 28 27 29 31 31 26 22 21 20 23 22 19 18 18 19 18 19
24 24 23 24 27 24 27 30 28 26 23 18 19 20 20 20 21 20 21 20 20 19
24 24 24 25 25 24 25 25 26 25 23 21 20 17 22 23 21 22 23 23 20 17
23 23 23 21 20 20 20 19 19 22 21 18 16 18 20 23 26 24 24 24 20 21
21 21 19 17 16 15 15 14 17 19 18 16 15 17 21 22 23 20 17 16 18 16

GFSNIL_925_spd_012.txt.gz
Wind_Speed
31 23 24 21 17 19 19 21 27 27 24 18 17 17 18 15 17 14 10 7 4 8
32 30 25 24 26 18 23 16 26 29 24 22 19 16 16 16 16 9 12 9 9 7
33 33 31 28 28 29 22 23 26 27 26 23 23 24 21 17 18 18 15 12 13 15
34 33 35 29 32 29 30 26 24 29 28 27 26 25 25 23 22 23 22 19 16 9
36 34 34 35 30 33 29 29 35 30 30 29 30 29 29 27 22 22 24 20 16 14
35 35 36 36 36 29 32 33 32 33 35 33 34 33 35 32 27 24 24 21 20 18
37 38 38 35 34 35 34 35 32 34 32 32 33 35 35 29 26 26 23 21 20 18
37 38 35 34 34 35 35 32 32 29 29 30 30 29 28 27 26 26 23 21 21 19
38 37 37 35 34 31 31 30 30 30 30 28 27 27 28 26 24 27 24 22 19 19
37 36 34 33 30 29 29 29 29 28 27 23 23 26 24 31 27 24 23 22 20 19
33 33 32 30 29 28 26 25 22 21 22 25 20 20 21 17 21 26 24 23 22 23
28 29 28 27 24 22 20 18 19 19 21 18 19 20 21 22 26 29 26 21 20 19
26 27 25 23 20 20 20 17 17 19 19 20 24 22 22 23 25 22 23 23 25 25
21 21 20 18 20 16 15 14 17 17 18 21 24 21 19 20 26 22 20 26 24 23

GFSNIL_925_spd_015.txt.gz
Wind_Speed
33 34 35 32 17 31 31 31 28 28 26 20 18 18 16 15 14 14 15 15 15 10
41 37 37 34 30 24 28 28 31 32 30 25 21 23 20 20 17 18 16 14 14 14
42 43 40 33 33 30 26 25 30 37 34 30 25 24 24 23 20 21 21 18 16 14
39 41 39 36 32 34 29 29 25 33 36 34 30 28 27 26 23 25 23 22 19 17
37 35 35 37 39 35 33 32 32 33 38 36 35 32 31 30 28 27 27 25 23 20
36 35 36 39 38 37 38 37 35 36 39 41 38 35 34 34 31 28 27 28 25 23
38 40 39 38 39 41 36 40 40 39 41 41 40 37 36 35 33 31 25 25 26 26
39 38 36 36 35 38 38 36 39 38 37 39 38 36 36 36 34 32 29 25 27 28
36 37 36 35 35 35 37 36 35 35 35 33 33 35 37 37 35 31 28 29 28 29
38 36 37 33 34 35 34 33 32 33 34 33 33 34 32 28 32 30 30 30 30 29
39 39 35 36 35 33 32 33 34 35 33 32 30 28 27 28 29 30 30 31 31 29
41 37 36 34 33 31 29 30 31 31 27 29 27 26 26 21 19 26 26 28 27 27
39 35 34 33 30 30 30 29 24 22 23 22 22 24 26 26 26 28 30 28 27 22
33 33 33 32 33 32 27 24 21 19 19 21 19 21 20 21 26 27 22 21 21 21

GFSNIL_925_spd_018.txt.gz
Wind_Speed
42 38 34 31 33 28 29 36 33 31 30 27 24 19 20 18 15 15 16 14 13 11
45 41 36 34 31 25 28 33 37 33 33 30 27 23 23 21 18 16 16 16 14 13
46 43 38 37 37 34 26 34 36 35 35 33 30 25 24 24 21 18 18 16 15 15
41 41 40 40 39 37 33 33 37 39 39 36 33 30 28 27 24 22 20 21 20 18
39 38 40 42 45 39 35 33 38 41 42 40 38 35 32 30 29 26 24 23 22 22
37 38 40 44 43 46 42 39 38 37 39 41 41 39 36 33 31 30 27 27 27 25
39 41 41 42 43 43 44 42 42 39 37 37 39 41 39 37 35 33 32 28 28 28
42 40 38 37 40 41 41 39 40 39 38 37 38 41 41 40 39 38 35 31 29 27
40 38 38 36 36 37 37 38 38 38 38 38 39 41 41 41 41 40 35 33 31 28
39 39 39 36 34 34 35 34 36 34 33 36 39 40 40 39 38 34 35 33 32 30
39 39 36 35 35 32 32 34 34 35 35 35 38 39 38 36 33 31 29 31 32 32
39 36 35 35 34 32 31 30 34 38 37 38 31 36 36 31 28 26 25 28 29 28
39 37 36 35 33 33 33 36 35 32 36 30 33 30 28 26 25 25 27 29 24 22
39 38 37 33 33 33 33 31 30 28 25 23 23 24 18 19 22 23 22 21 21 19

GFSNIL_925_spd_021.txt.gz
Wind_Speed
45 42 41 39 35 34 32 29 27 32 30 28 25 23 19 21 19 16 16 16 14 11
44 39 38 41 38 34 35 30 27 33 34 32 29 26 23 23 22 19 17 17 15 13
45 43 40 41 39 34 35 33 31 32 36 34 32 30 26 25 24 21 19 17 17 17
40 39 39 42 41 38 35 33 32 32 37 37 34 33 30 28 26 25 22 19 18 16
42 38 39 44 44 40 40 37 34 30 34 39 37 37 35 32 30 28 26 24 22 21
39 39 40 43 46 44 43 41 38 35 36 39 39 38 38 35 33 30 30 28 26 24
40 42 42 43 44 42 44 42 40 40 38 39 41 41 39 39 37 34 33 32 28 27
40 41 38 38 42 42 41 41 43 40 38 38 39 41 41 40 41 38 38 32 30 27
39 39 38 37 38 37 38 40 41 41 41 39 40 40 39 40 40 41 39 35 30 28
39 39 38 36 35 37 38 37 40 40 40 41 41 41 41 38 38 37 36 33 32 31
38 40 37 35 36 35 35 38 37 40 40 40 44 43 38 36 36 34 30 28 26 29
40 38 37 37 37 35 33 33 36 37 39 40 37 34 32 31 32 30 26 22 22 26
42 40 40 40 37 35 35 33 30 36 36 36 34 31 28 24 28 27 24 20 21 21
37 40 40 36 35 37 35 30 29 29 30 33 32 29 25 21 26 25 22 20 19 20

GFSNIL_925_spd_024.txt.gz
Wind_Speed
45 40 41 41 37 34 33 31 27 24 24 25 24 20 19 20 18 16 15 13 13 11
44 41 38 40 41 39 35 34 32 27 26 28 27 24 22 22 21 19 17 15 15 14
47 47 44 43 43 43 39 35 33 31 28 29 30 28 26 25 23 21 20 17 17 18
39 40 41 43 47 44 41 40 35 33 31 28 32 31 30 29 26 24 23 21 20 19
43 40 41 44 47 45 42 40 37 34 34 31 32 34 33 32 30 28 27 26 24 21
39 39 41 45 46 46 43 40 37 36 36 34 34 36 35 34 34 32 31 30 28 25
42 43 44 46 46 44 44 42 40 41 39 37 33 35 37 37 36 35 34 33 30 27
41 41 41 39 43 43 44 45 44 42 42 41 39 37 39 39 38 37 36 35 32 28
37 39 41 40 41 41 40 41 41 42 42 42 44 42 39 37 38 36 36 37 36 31
39 40 41 38 37 42 41 39 42 41 40 43 45 43 40 38 38 35 36 36 35 31
38 39 36 36 38 39 38 40 39 40 43 41 43 44 41 39 38 37 35 34 32 27
39 38 38 38 41 39 36 35 37 37 38 43 43 43 42 39 39 38 36 34 28 24
42 40 40 41 39 36 33 33 32 35 43 45 45 43 42 39 41 36 34 32 26 24
37 40 40 37 33 30 30 28 32 34 34 41 43 42 41 40 41 34 26 26 29 24

GFSNIL_925_spd_030.txt.gz
Wind_Speed
33 31 29 27 24 22 21 19 19 21 21 20 18 16 14 13 13 13 13 12 12 9
35 35 32 30 28 27 22 20 20 22 23 22 20 18 17 16 15 15 14 13 13 12
38 37 37 32 32 29 27 25 21 22 23 23 22 20 20 18 17 17 16 15 15 15
38 38 36 36 36 34 30 28 28 26 24 25 24 23 22 22 20 19 18 18 17 18
39 38 38 37 37 35 34 33 32 30 28 27 27 26 25 24 24 23 22 21 20 20
40 39 38 38 38 37 37 36 35 33 33 31 30 29 28 27 27 26 25 24 23 21
41 42 40 39 39 38 38 36 36 36 35 35 33 31 31 30 29 29 27 26 25 24
41 39 38 38 40 39 37 37 37 37 36 36 35 35 35 34 33 31 30 27 27 26
36 36 39 38 38 36 38 39 39 39 38 38 39 41 41 38 35 33 32 30 28 25
34 37 38 35 34 37 40 37 41 40 40 41 43 45 46 47 39 35 33 31 29 27
34 34 32 33 37 37 37 39 38 39 41 40 42 46 49 48 45 34 33 32 31 31
34 32 31 34 39 35 33 33 34 32 34 37 40 44 48 49 43 40 35 36 33 31
32 33 35 34 32 31 31 32 32 34 34 35 35 35 43 48 40 36 37 34 33 36
32 33 32 31 32 32 32 31 33 33 34 34 35 37 39 48 47 40 36 35 34 35

GFSNIL_925_spd_033.txt.gz
Wind_Speed
30 29 30 25 23 24 21 21 17 28 23 21 19 18 16 14 13 13 12 11 12 8
36 34 31 30 31 23 24 21 19 21 22 23 22 20 19 18 17 14 15 14 14 13
38 37 35 31 29 30 25 25 17 24 22 23 24 23 22 20 18 17 17 16 17 16
40 38 36 36 33 33 30 26 30 23 26 25 26 26 25 24 19 22 20 18 17 18
39 39 39 38 37 34 34 32 29 29 27 27 28 28 27 27 25 23 23 22 21 21
41 40 41 39 38 39 36 35 34 32 31 31 31 31 30 29 28 25 26 25 25 24
41 43 41 39 39 38 38 37 36 35 35 35 35 34 34 34 32 30 30 29 28 27
40 38 37 38 39 39 38 39 38 37 38 37 38 38 37 37 34 34 33 31 31 29
37 36 37 36 37 38 39 39 39 40 40 40 40 40 42 39 35 34 32 32 31 31
36 37 36 35 35 39 40 37 40 39 38 40 42 43 44 45 39 35 35 34 34 32
37 36 34 35 37 36 34 37 37 37 38 39 42 44 46 47 48 40 37 37 37 35
34 34 35 38 38 36 35 35 37 37 37 41 41 42 47 48 45 44 42 39 36 37
32 34 36 36 35 34 35 36 33 36 39 41 42 44 47 50 44 41 41 41 38 41
33 34 35 33 33 34 34 32 34 35 37 41 44 45 51 53 49 46 42 40 40 43

GFSNIL_925_spd_036.txt.gz
Wind_Speed
30 28 35 23 23 27 23 26 25 28 28 25 20 20 17 15 15 13 15 13 15 10
40 31 30 30 27 23 27 20 23 29 31 29 25 23 22 21 19 16 18 18 17 17
39 38 33 33 31 30 23 28 17 29 33 28 27 24 25 22 21 21 20 20 20 19
39 39 38 32 33 30 33 22 30 23 31 31 28 28 27 27 23 24 25 23 23 25
37 37 38 39 35 33 30 35 27 31 29 29 31 30 32 30 29 26 31 33 27 24
38 38 38 38 40 36 37 35 37 29 31 34 32 33 33 33 32 33 30 29 31 27
38 38 39 37 38 39 39 38 38 38 36 33 33 33 34 33 31 32 30 29 30 31
39 38 37 38 38 39 40 42 40 39 37 36 35 36 35 35 35 35 35 33 31 33
40 40 39 39 39 38 39 38 37 37 38 38 39 40 41 38 35 35 36 35 35 35
40 39 40 39 39 38 39 38 39 38 39 41 43 44 46 46 42 39 37 38 37 36
35 37 37 39 40 39 38 38 39 38 39 40 44 46 48 49 50 44 43 42 42 39
32 33 36 38 39 37 36 37 38 37 38 41 42 43 49 49 50 45 45 44 43 43
32 34 35 36 35 35 36 36 34 36 39 41 43 43 46 50 44 42 44 43 43 46
34 36 34 32 32 32 33 31 33 34 34 39 43 44 44 48 47 49 43 41 41 45

GFSNIL_925_spd_039.txt.gz
Wind_Speed
34 35 34 30 29 30 28 28 29 29 27 26 23 22 19 18 16 15 17 15 14 12
42 34 38 40 29 26 28 29 29 29 33 30 28 24 24 22 21 19 17 19 17 17
47 47 34 37 38 28 28 30 23 33 35 36 33 27 28 25 24 22 22 20 18 20
36 36 37 33 37 37 31 25 31 24 33 39 37 32 30 29 27 25 24 23 22 20
32 32 35 36 35 38 35 36 26 28 26 34 36 34 31 30 30 29 28 28 27 25
35 33 35 36 39 36 39 39 37 30 28 32 36 36 36 36 35 35 32 33 32 31
37 36 36 37 39 41 40 40 41 37 32 34 38 40 40 38 38 39 39 34 35 39
38 39 37 38 37 39 40 37 40 38 38 39 39 42 43 41 42 42 41 40 39 39
39 38 40 38 38 36 37 39 37 40 40 40 41 40 43 44 40 41 40 41 43 43
39 39 39 40 37 39 39 36 38 39 40 41 42 41 42 46 43 39 41 42 39 41
39 38 39 38 40 38 38 37 38 37 41 40 43 44 45 46 49 41 40 41 43 41
38 39 37 39 38 38 36 35 37 36 37 40 41 42 45 45 48 44 45 41 40 42
38 38 39 39 38 37 37 37 33 36 37 39 41 39 40 41 44 40 41 39 41 43
37 41 41 36 35 34 33 32 33 33 35 36 37 35 34 39 42 41 36 36 39 38

GFSNIL_925_spd_042.txt.gz
Wind_Speed
41 39 37 35 30 30 33 32 30 30 27 26 25 23 23 21 19 17 17 15 13 12
44 41 40 39 37 30 31 29 29 31 31 29 28 26 25 23 21 20 17 19 18 17
43 43 41 38 38 36 32 30 29 31 34 32 32 30 28 27 24 23 21 20 21 22
39 37 38 37 41 40 33 28 31 31 33 36 35 34 32 31 30 28 27 24 23 22
35 35 35 39 39 41 41 37 27 34 29 35 36 38 38 35 34 32 31 30 27 29
34 35 38 39 40 41 42 40 36 29 32 34 34 37 40 38 36 35 36 35 33 34
37 37 38 41 40 38 42 41 41 37 38 32 35 35 37 40 39 37 37 37 37 37
38 38 38 38 40 40 36 42 42 43 41 40 36 38 39 40 42 42 40 39 40 40
37 38 37 37 38 38 40 40 38 43 41 43 41 40 41 42 43 44 42 42 42 42
36 34 36 36 35 35 37 38 41 39 41 39 41 42 42 44 45 41 42 42 40 41
33 34 34 33 34 36 33 35 37 39 39 38 41 41 43 42 44 41 39 41 42 41
37 35 34 33 35 35 33 33 35 36 37 40 38 39 41 41 44 42 41 38 39 41
36 37 36 37 35 36 35 34 34 34 36 38 37 37 38 39 42 39 36 37 41 42
38 39 38 37 35 32 32 32 32 33 33 33 34 34 34 36 40 38 32 35 37 37

GFSNIL_925_spd_045.txt.gz
Wind_Speed
44 41 36 35 33 30 29 31 30 30 28 24 21 18 18 17 16 16 17 15 15 14
43 41 39 36 35 35 31 29 31 30 30 27 24 22 21 21 21 19 18 18 18 17
44 46 43 39 36 37 32 31 29 30 30 31 28 25 25 24 24 23 20 20 21 23
40 41 38 38 38 37 36 33 29 29 28 29 31 30 29 29 28 28 26 24 24 25
38 39 39 41 40 38 38 35 33 30 30 30 30 33 32 33 32 31 31 29 29 29
34 34 37 39 41 40 38 35 35 29 31 33 34 34 35 35 36 36 34 34 33 33
35 37 38 41 41 39 41 39 39 38 39 34 36 35 33 34 36 38 38 36 35 35
37 38 38 39 40 40 39 42 45 41 40 41 38 36 39 38 36 35 38 39 39 38
36 37 38 39 38 38 40 41 41 43 44 42 44 41 41 36 38 38 38 40 41 41
33 33 35 36 35 37 38 37 38 39 40 42 43 42 44 42 41 40 41 43 42 42
33 33 33 32 33 35 35 37 38 37 37 38 39 44 44 43 43 41 41 43 44 44
35 33 32 33 35 35 32 33 36 38 38 38 38 40 41 39 42 43 43 41 42 45
36 35 34 37 36 35 34 34 32 32 34 38 39 38 38 40 41 35 34 37 41 41
37 39 37 34 32 31 31 30 29 30 31 33 36 37 35 36 39 36 32 34 33 32

GFSNIL_925_spd_048.txt.gz
Wind_Speed
44 42 41 37 33 33 31 28 23 22 23 22 19 16 14 14 14 14 15 13 12 13
42 42 40 40 34 32 29 28 25 23 23 24 22 19 18 17 17 17 16 17 16 15
42 45 43 41 37 33 31 27 25 23 25 26 25 24 22 22 20 20 21 20 18 18
38 40 40 41 40 36 32 31 28 26 23 26 27 27 27 25 23 23 23 23 20 20
40 38 38 40 42 38 35 31 32 28 26 27 28 28 27 29 27 26 26 26 25 25
35 36 38 39 42 40 37 35 33 32 32 32 30 29 28 27 29 29 29 29 29 29
36 37 38 40 41 41 39 37 36 36 35 33 33 31 30 29 29 31 32 33 34 33
37 39 39 40 41 41 41 40 38 38 38 37 35 33 31 32 32 31 31 32 34 36
37 38 41 41 41 40 40 40 40 41 41 41 41 40 39 37 35 36 38 39 38 37
34 36 37 38 37 39 40 36 39 40 39 42 44 43 41 41 41 40 40 39 39 39
35 34 33 32 34 35 34 37 38 37 39 39 42 44 44 43 42 42 43 43 44 43
36 34 33 34 34 35 32 33 36 37 37 38 39 39 39 39 41 42 43 42 43 45
34 36 35 38 36 34 32 33 30 31 34 38 39 38 38 38 39 33 33 38 43 43
37 38 38 32 31 29 29 26 27 29 31 34 35 36 35 35 39 35 31 31 30 31

GFSNIL_925_spd_051.txt.gz
Wind_Speed
39 30 29 27 24 22 21 20 19 21 19 18 16 13 12 10 10 10 10 10 10 6
38 36 29 30 29 24 23 19 20 23 21 20 19 18 14 12 12 12 11 10 11 10
35 36 36 31 32 29 24 22 18 23 22 19 19 19 18 14 14 13 12 11 11 12
34 31 30 29 32 32 31 26 24 25 24 22 20 19 20 19 16 15 14 14 14 15
35 34 31 34 31 32 33 30 27 28 27 24 21 19 19 18 18 18 17 17 16 17
35 34 34 34 33 31 32 34 31 28 30 28 25 22 21 20 20 19 19 19 18 18
36 36 36 34 34 31 33 36 35 33 32 31 25 22 20 20 20 20 20 21 21 20
37 36 35 33 33 34 31 34 36 36 33 31 27 26 25 23 23 23 22 22 23 22
35 35 35 34 33 32 32 32 34 31 30 29 30 31 33 30 25 24 24 24 24 25
35 35 35 34 32 31 31 29 31 30 29 31 33 36 37 38 33 28 27 26 24 25
33 33 32 31 31 31 29 29 28 28 30 31 33 38 40 41 39 33 33 32 30 29
34 33 32 32 31 30 28 28 29 28 28 30 32 35 38 37 33 34 36 35 33 32
33 33 33 33 32 32 31 30 27 28 31 32 32 35 38 36 30 30 32 32 33 37
32 33 32 31 29 27 27 25 26 27 28 29 31 32 35 35 33 31 28 29 28 28

GFSNIL_925_spd_054.txt.gz
Wind_Speed
30 28 26 22 19 19 17 15 13 14 15 14 12 11 9 9 9 8 8 8 8 8
31 31 28 25 22 21 18 16 15 16 17 16 15 14 12 11 10 9 9 9 10 10
33 32 31 26 25 22 21 19 17 18 19 18 17 17 15 13 12 11 11 12 10 11
35 33 30 29 27 25 22 21 20 19 18 19 18 18 17 16 14 13 13 13 13 13
36 34 32 30 29 25 24 24 23 21 19 21 21 19 20 19 18 17 16 15 15 15
39 37 35 32 30 28 26 25 24 23 22 22 22 21 21 21 20 19 18 18 18 18
39 38 37 35 32 30 29 27 27 26 25 24 23 23 22 21 21 20 20 20 20 20
37 36 35 34 33 32 30 29 28 27 28 25 24 25 25 24 23 22 22 22 21 22
35 36 37 35 34 33 32 32 29 29 29 28 27 28 29 27 24 25 24 24 24 23
37 37 37 35 34 34 33 31 30 29 28 30 30 30 32 33 30 26 26 25 25 25
37 36 34 34 35 33 32 31 29 29 29 30 31 32 35 35 32 30 29 27 27 27
38 36 34 34 33 32 31 30 30 29 29 30 31 32 35 35 29 30 32 32 31 31
33 34 34 33 33 33 31 31 30 30 30 31 31 31 35 36 29 29 31 30 32 36
33 33 32 31 31 31 30 28 30 28 28 30 31 30 33 36 32 30 29 30 29 29

GFSNIL_925_spd_057.txt.gz
Wind_Speed
28 26 25 20 19 19 17 15 17 16 14 12 12 11 10 9 9 11 9 9 10 7
33 32 27 25 26 19 20 14 14 14 14 15 14 13 12 11 11 6 9 11 10 10
34 33 30 27 24 25 19 20 11 18 17 17 17 16 16 14 13 11 12 11 13 11
36 34 35 28 29 24 22 18 21 17 17 18 19 18 18 18 12 15 14 13 11 12
36 36 35 36 30 27 26 24 22 21 20 19 20 20 20 20 18 17 16 16 16 14
38 38 37 35 33 31 29 27 25 25 23 21 22 22 22 22 21 20 20 19 18 18
40 39 38 35 35 34 32 30 28 27 26 25 24 24 24 23 23 22 22 21 20 20
42 40 37 38 36 35 34 33 31 29 28 27 26 26 27 25 24 23 23 22 22 23
36 38 40 39 38 36 34 33 32 30 29 29 29 28 29 29 26 25 25 24 23 24
36 38 39 38 37 37 36 34 33 32 30 30 32 30 30 32 30 25 26 25 24 23
35 37 37 37 38 37 35 35 33 32 32 31 32 34 34 32 34 30 27 24 25 25
39 36 36 37 37 35 33 33 33 33 32 33 32 33 36 34 29 29 30 29 30 27
37 36 37 37 35 36 35 35 34 32 32 32 32 34 34 36 31 28 28 29 30 33
36 36 34 32 32 33 33 31 30 30 30 30 32 31 36 39 35 30 28 28 27 29

GFSNIL_925_spd_060.txt.gz
Wind_Speed
28 31 27 16 19 15 20 24 26 25 18 14 13 11 11 9 10 8 8 7 9 9
31 29 25 21 21 20 20 10 25 26 21 16 14 13 13 10 13 9 11 11 10 12
40 34 30 31 21 24 21 20 20 23 21 20 17 16 15 14 13 12 12 12 14 12
35 36 38 29 34 26 29 19 23 16 19 20 20 18 18 18 15 18 15 16 11 18
36 37 35 37 30 32 30 30 21 23 18 20 20 21 21 21 19 16 19 17 16 13
37 37 38 37 36 34 35 28 26 22 25 22 22 23 23 24 23 21 19 20 20 20
41 40 39 38 41 34 36 36 31 29 26 27 26 26 25 25 24 23 23 21 24 21
40 39 37 37 37 41 37 34 34 32 30 29 28 28 28 28 26 26 25 25 24 24
37 37 37 38 36 37 38 37 35 34 32 31 30 31 30 30 28 26 27 26 27 24
37 39 41 37 39 35 38 36 37 35 34 34 34 33 32 33 33 30 28 28 27 26
38 39 39 39 37 38 35 37 36 36 36 35 35 36 36 34 37 33 30 30 30 29
39 36 38 39 40 37 36 35 36 36 36 37 35 35 38 38 34 37 35 35 32 27
35 37 37 38 38 37 37 37 36 36 37 36 35 36 37 39 38 30 30 31 34 35
34 38 35 35 35 35 35 33 34 33 33 33 36 34 38 39 40 32 28 29 28 31

GFSNIL_925_spd_063.txt.gz
Wind_Speed
33 31 28 16 26 31 31 29 28 25 21 17 16 13 11 9 11 9 10 9 6 6
35 36 34 27 21 29 29 27 28 29 25 20 19 15 14 12 10 10 9 9 10 9
43 40 38 32 28 19 26 20 20 33 29 24 20 18 17 14 12 13 11 13 10 9
39 42 40 35 33 25 23 19 16 31 30 26 24 20 21 18 15 18 15 13 13 14
39 41 41 41 36 34 29 26 19 26 29 28 27 24 22 22 20 19 19 19 20 17
37 40 41 42 42 40 36 32 31 26 31 30 28 25 25 24 23 22 20 21 21 20
39 38 41 39 42 41 38 37 36 33 29 30 29 28 26 26 26 25 25 21 23 21
39 37 35 37 37 44 39 42 38 36 33 30 31 30 29 28 28 29 28 26 27 23
37 38 38 36 37 40 42 38 42 41 38 35 32 33 33 32 32 30 31 31 29 29
40 39 40 37 36 36 41 38 37 40 38 38 38 35 35 33 33 34 33 32 32 30
41 41 38 38 37 36 35 38 38 36 36 36 38 38 37 36 35 36 35 35 34 34
42 39 39 41 39 39 35 36 38 36 37 37 37 37 40 38 39 41 39 39 37 37
40 40 41 40 41 37 39 37 33 36 36 37 38 37 38 41 42 40 37 39 41 39
41 43 41 40 38 39 36 33 35 34 35 34 36 38 40 39 43 37 33 33 34 41

GFSNIL_925_spd_066.txt.gz
Wind_Speed
33 31 26 23 31 32 32 28 25 25 22 17 16 16 14 14 13 11 11 9 7 6
36 35 32 24 28 33 34 30 28 27 26 22 19 18 16 16 14 14 11 11 11 10
42 39 37 32 25 27 33 31 30 29 28 25 22 20 19 17 14 14 13 12 11 12
43 43 40 37 34 28 26 30 31 28 32 30 26 23 21 18 15 15 15 13 13 14
44 46 43 42 40 36 32 25 32 26 28 34 30 25 25 22 20 18 17 15 14 14
37 40 45 44 43 40 37 29 25 27 25 32 33 29 28 26 24 22 21 19 19 20
38 38 41 43 42 44 40 40 31 28 29 32 35 33 31 29 27 25 25 23 22 22
37 38 38 41 41 44 48 42 41 36 33 33 36 36 36 33 29 28 27 27 25 26
37 36 37 38 40 41 46 46 45 42 40 38 37 38 37 35 32 30 30 30 29 29
35 36 36 34 36 39 42 41 40 43 42 41 42 39 38 36 35 33 33 33 33 32
35 35 35 35 36 37 35 39 39 38 41 40 42 42 41 38 36 36 36 37 37 36
32 34 34 35 36 36 35 36 37 38 38 40 41 41 43 41 39 40 41 39 39 38
25 35 37 39 38 37 38 37 35 37 38 38 40 42 42 41 41 38 38 37 42 42
32 39 43 40 39 37 36 35 35 36 36 37 41 41 42 43 43 37 36 35 33 42

GFSNIL_925_spd_069.txt.gz
Wind_Speed
31 31 26 21 21 26 26 25 23 21 20 17 15 16 14 14 13 11 12 10 7 5
32 34 32 26 20 23 28 28 26 24 23 21 17 16 16 15 15 14 13 14 11 11
37 36 35 32 28 21 24 29 28 25 23 22 21 18 17 17 15 15 15 14 14 13
41 38 37 35 33 29 20 27 28 28 25 24 24 23 20 19 17 17 15 15 14 16
42 42 40 39 37 33 30 25 24 25 26 26 29 28 25 23 21 20 18 16 16 16
37 39 42 41 40 37 34 32 28 24 27 30 29 31 30 27 24 23 21 19 18 19
37 41 42 42 42 41 39 36 34 30 26 30 31 28 31 30 27 26 25 24 23 22
36 38 41 41 43 44 43 41 38 35 33 29 29 31 31 33 32 30 29 29 28 27
32 34 37 38 41 41 44 45 43 41 38 37 35 32 32 34 35 34 33 33 31 29
35 35 38 40 39 40 41 41 42 42 43 43 41 39 36 35 36 38 39 38 35 33
34 35 33 31 35 38 37 38 41 40 40 40 43 45 43 40 38 41 42 41 39 37
27 27 30 31 33 35 33 35 37 38 39 39 39 40 44 43 41 43 44 44 43 41
6 23 28 30 32 34 34 35 33 35 38 40 40 39 40 39 42 38 38 40 41 44
11 11 16 26 33 33 34 33 33 33 35 38 39 39 39 40 42 38 34 35 34 35

GFSNIL_925_spd_072.txt.gz
Wind_Speed
33 30 28 24 21 18 19 19 16 16 16 15 12 11 11 12 12 11 10 9 6 4
36 32 31 26 20 20 18 20 20 17 17 16 15 12 12 12 12 12 11 11 10 9
38 34 33 31 26 22 17 17 21 20 20 19 18 16 13 13 13 12 12 12 12 12
38 36 33 34 32 27 22 17 18 21 20 20 18 18 16 14 14 14 13 12 13 12
40 37 36 36 36 32 28 24 19 18 21 21 21 22 21 20 18 17 16 15 14 14
37 39 37 38 38 36 34 31 27 23 19 20 20 22 22 24 24 21 19 18 17 15
35 38 41 41 40 39 38 36 34 31 28 24 21 22 23 23 25 27 23 21 21 19
39 39 39 38 41 40 40 40 39 37 34 31 28 25 24 25 24 28 28 25 23 23
34 34 38 40 41 40 40 40 40 40 39 38 36 34 29 26 26 27 30 29 27 25
31 33 37 39 38 39 41 40 41 41 40 41 41 40 38 35 31 30 30 31 31 30
37 35 37 34 35 38 37 37 39 39 40 40 43 44 43 41 39 37 36 35 34 34
25 28 28 31 31 33 30 34 37 38 38 39 41 40 42 42 42 41 42 41 40 39
3 11 26 30 32 34 35 33 32 35 38 39 39 40 39 38 40 33 35 38 42 43
5 8 7 13 27 30 31 30 30 33 36 37 37 37 38 37 39 35 32 33 32 36

GFSNIL_925_spd_075.txt.gz
Wind_Speed
28 22 21 20 16 14 13 12 12 13 11 11 8 8 8 8 8 7 6 5 5 3
32 29 23 21 21 16 15 12 14 14 13 12 11 10 9 9 9 8 7 7 8 6
27 29 27 25 23 20 18 17 13 15 15 13 13 13 12 9 10 10 9 8 8 8
27 27 25 24 25 24 21 19 16 15 15 15 15 15 15 14 11 11 10 9 9 9
28 27 25 28 27 27 27 23 21 16 14 15 15 16 16 17 14 14 12 11 10 10
30 27 26 27 28 28 28 27 22 21 18 16 16 17 19 18 17 16 15 13 13 12
35 35 32 28 27 26 29 30 27 26 24 22 18 18 17 17 18 17 17 17 15 15
28 34 38 33 31 30 26 28 30 28 27 26 23 21 20 19 18 18 17 18 19 18
23 24 27 30 31 30 30 28 28 29 29 29 29 29 30 26 19 19 19 18 21 22
23 23 25 26 26 27 29 28 27 28 27 31 34 36 37 36 28 23 22 22 21 21
20 24 22 22 24 26 26 26 28 26 28 31 34 39 41 41 38 30 28 27 26 24
9 20 22 23 23 24 22 23 25 25 25 28 35 37 38 37 33 33 33 32 31 30
13 9 12 19 22 22 23 24 23 24 25 27 31 35 36 35 30 30 32 33 35 36
17 12 9 11 15 21 23 23 24 24 24 26 29 32 34 34 33 31 30 31 30 32

GFSNIL_925_spd_078.txt.gz
Wind_Speed
19 18 17 15 13 12 11 10 8 11 10 9 9 7 7 7 6 6 7 6 7 5
21 21 17 16 13 14 12 9 10 10 11 11 11 10 9 8 8 7 8 9 8 8
23 21 20 18 17 15 14 13 10 12 12 12 12 11 10 8 9 9 9 10 9 10
24 24 21 20 19 18 17 16 15 14 15 13 13 13 13 12 8 9 10 9 10 11
23 21 21 20 20 18 18 18 16 16 13 14 15 15 15 13 11 11 11 11 11 11
21 23 24 22 20 20 19 20 19 18 16 15 17 17 17 16 15 15 15 13 13 13
21 24 27 26 23 21 21 20 21 22 20 18 17 18 18 18 17 17 16 16 16 14
18 19 21 24 26 25 22 22 22 23 23 22 21 21 20 19 19 19 19 17 16 17
16 17 18 21 25 24 25 24 24 24 25 25 25 26 25 23 21 20 19 19 18 19
16 16 17 19 20 21 24 24 25 26 26 27 28 29 31 30 29 26 23 22 22 21
12 14 17 19 20 21 21 23 25 26 27 28 29 32 33 35 34 31 31 29 27 26
15 17 13 18 20 20 20 21 23 24 25 27 29 31 33 34 29 30 33 34 34 33
17 16 15 15 19 22 22 21 21 23 24 26 28 28 31 32 28 28 30 31 34 38
20 21 18 15 19 20 21 22 22 23 24 25 26 27 30 32 29 30 30 31 31 33

GFSNIL_925_spd_081.txt.gz
Wind_Speed
16 14 14 12 11 10 11 7 14 7 8 9 9 8 8 7 7 10 7 7 9 10
19 18 15 13 13 12 7 8 11 9 9 10 10 9 8 9 9 6 6 9 8 9
20 19 17 14 14 11 10 10 5 10 11 10 10 10 10 11 10 9 9 10 14 11
21 20 18 17 16 16 14 12 10 8 12 10 12 11 12 13 5 9 9 11 7 9
19 18 19 19 18 16 17 16 16 15 13 14 14 14 14 15 13 12 11 11 11 11
19 20 21 21 19 19 18 18 17 17 17 16 17 16 16 16 17 14 13 13 13 13
17 20 21 22 20 20 20 19 20 20 20 19 18 17 18 19 18 18 17 16 16 15
14 16 17 18 21 22 21 22 22 21 22 23 21 21 22 20 21 21 19 18 17 19
12 6 14 15 17 19 22 22 23 24 24 25 26 26 25 23 22 22 21 20 20 21
15 11 12 10 13 17 19 21 24 26 26 27 28 29 28 30 29 26 23 22 23 22
18 15 15 14 14 17 16 19 23 25 27 27 29 31 32 32 33 30 31 29 25 26
16 15 15 16 18 15 17 20 21 21 25 28 29 31 31 34 30 31 33 32 33 33
13 13 14 15 17 18 18 17 19 21 26 28 30 28 30 31 28 30 30 31 34 37
13 13 12 14 14 18 18 18 15 18 22 27 28 28 30 29 28 30 30 31 30 32

GFSNIL_925_spd_084.txt.gz
Wind_Speed
16 10 9 9 10 8 8 7 13 11 11 11 11 9 8 6 6 10 6 10 10 12
18 17 12 13 14 10 10 11 5 7 10 7 9 9 10 9 10 5 7 9 10 14
21 21 20 12 11 11 6 16 5 7 11 10 11 11 10 11 9 11 10 10 12 11
24 22 19 16 13 17 11 10 13 12 16 14 12 13 13 10 6 11 10 12 6 14
23 23 22 21 19 18 17 15 13 11 12 13 14 12 14 13 11 11 11 10 9 11
25 23 23 24 22 20 19 17 16 17 17 18 17 16 14 15 14 14 13 14 12 15
21 20 20 18 21 22 21 19 19 19 19 21 19 19 18 17 17 17 18 15 16 17
13 12 13 16 20 19 20 21 20 20 21 19 21 19 20 20 20 21 22 21 20 21
15 14 3 8 12 15 16 19 19 21 21 21 22 23 24 26 23 22 24 24 22 22
13 12 12 12 5 8 15 18 19 20 22 23 24 27 26 24 26 23 23 25 26 25
16 12 11 9 10 10 8 12 18 22 21 25 25 25 27 30 30 27 28 29 26 26
19 17 14 12 12 14 13 12 13 17 21 22 24 25 28 25 30 29 30 32 30 30
13 12 11 12 12 11 14 15 16 16 19 24 28 24 24 27 28 25 25 28 31 34
12 12 11 11 14 15 13 13 15 17 19 20 24 24 24 25 28 27 24 27 28 28

GFSNIL_925_spd_087.txt.gz
Wind_Speed
14 12 10 11 13 16 14 14 12 13 11 11 9 7 7 6 5 6 9 9 10 11
21 17 16 14 12 14 13 11 10 15 12 13 12 10 9 10 8 7 7 9 10 12
23 21 19 13 12 16 14 15 9 15 14 14 13 13 10 8 7 9 11 10 10 12
24 20 19 18 12 14 11 17 13 15 16 15 15 14 13 11 11 8 14 13 14 12
25 24 22 21 20 15 16 15 13 9 13 19 16 15 17 14 13 13 12 11 11 14
26 26 26 24 23 24 19 18 17 17 15 14 16 17 16 16 15 14 15 14 13 14
8 12 24 25 24 23 22 20 19 20 19 19 20 20 19 17 17 16 18 18 15 17
1 10 15 23 18 21 20 21 20 19 20 18 22 22 20 20 20 21 21 21 21 20
7 5 3 4 3 9 16 18 18 20 21 21 22 19 21 21 24 25 24 25 23 22
9 6 4 8 4 1 3 8 11 14 17 22 24 22 24 25 21 26 28 26 25 23
16 11 9 8 8 8 5 4 6 11 13 15 19 21 24 23 25 26 25 24 24 25
16 15 15 14 11 10 10 9 9 7 10 14 16 17 20 23 25 26 27 29 29 28
16 14 15 12 15 15 14 12 13 13 10 13 15 17 18 19 22 25 27 28 28 29
14 15 15 15 14 16 16 15 16 14 13 11 10 9 11 12 15 19 24 25 24 22

GFSNIL_925_spd_090.txt.gz
Wind_Speed
15 12 11 15 17 17 16 15 15 15 14 11 9 9 10 9 7 6 6 7 6 7
18 17 13 15 12 16 17 14 19 17 16 13 12 12 10 9 7 6 5 5 7 8
23 21 19 16 14 16 18 15 15 13 17 14 15 13 12 11 9 8 10 8 7 6
27 25 22 20 16 16 20 19 18 14 15 16 15 15 15 12 10 9 9 11 10 11
29 26 25 26 24 17 19 17 18 15 16 18 16 16 17 16 13 11 13 11 13 13
24 25 26 25 25 23 19 20 18 17 15 17 20 17 17 17 16 15 14 14 13 11
12 24 26 26 23 24 23 20 19 19 19 17 17 17 19 18 18 17 17 16 17 18
8 3 17 23 21 19 21 23 22 20 20 20 19 20 20 21 21 19 20 19 19 18
3 5 6 4 10 13 19 20 20 19 20 19 20 20 18 21 22 22 23 24 23 22
2 8 11 8 7 7 7 7 15 19 18 18 19 17 18 19 22 24 24 23 26 26
10 3 7 8 11 11 11 9 7 7 9 13 12 14 16 19 22 24 25 25 25 24
13 15 8 12 9 10 10 11 13 12 9 6 8 10 11 16 18 20 23 24 25 24
16 13 9 8 7 9 12 9 10 9 8 8 8 8 9 12 14 15 20 21 21 22
12 11 11 8 9 12 16 15 15 8 10 13 14 15 13 11 10 12 13 15 17 17

GFSNIL_925_spd_093.txt.gz
Wind_Speed
14 14 13 12 11 18 17 15 13 12 12 10 9 9 11 9 7 8 6 5 4 4
17 15 14 12 12 14 17 17 16 15 15 12 11 10 9 10 9 7 7 4 4 3
21 17 16 13 14 13 12 16 16 16 18 15 13 11 11 11 9 10 9 9 7 5
23 21 19 18 15 14 14 15 16 13 12 14 14 13 13 12 11 11 9 8 11 9
22 23 22 21 20 18 17 16 18 16 14 15 16 14 14 14 14 12 12 13 11 11
18 19 23 24 23 21 21 17 18 18 19 14 17 17 16 16 15 15 14 14 14 12
3 10 15 19 22 21 21 22 20 20 20 18 16 16 18 18 18 15 16 16 16 15
7 8 7 8 13 18 17 19 21 21 22 20 19 18 19 18 18 18 18 18 18 18
3 8 13 15 10 3 7 15 19 19 20 22 21 18 18 16 17 18 19 19 18 19
3 2 8 12 12 12 13 13 8 7 14 19 22 19 19 17 17 18 19 19 19 20
6 3 5 7 10 12 12 14 15 12 9 9 7 9 17 19 18 19 19 20 20 21
14 13 10 8 5 9 11 7 10 9 8 8 9 11 8 7 10 12 15 17 16 16
13 12 10 8 4 7 8 8 5 8 10 12 17 18 18 11 9 8 10 13 12 12
11 11 11 10 10 9 11 17 22 19 17 16 16 14 16 19 17 17 15 14 15 12

GFSNIL_925_spd_096.txt.gz
Wind_Speed
15 10 8 9 10 13 15 11 9 8 8 7 7 5 6 6 5 4 5 4 3 2
17 15 12 9 9 9 12 13 11 9 9 10 9 8 7 7 7 5 4 3 3 3
17 15 12 11 10 10 9 11 13 11 12 12 10 9 8 9 7 7 6 6 6 4
19 16 14 14 12 10 8 8 9 10 8 10 13 12 11 10 9 9 8 6 5 8
17 18 16 15 14 14 13 11 11 10 10 9 8 9 10 11 11 10 9 9 9 7
12 13 15 16 17 17 16 14 13 13 13 12 9 11 12 13 12 12 13 11 10 10
7 5 6 8 10 12 13 12 13 15 14 14 13 12 12 16 15 14 14 14 13 12
17 15 8 3 1 2 4 6 9 13 15 15 15 16 15 14 15 16 15 16 15 14
10 11 13 15 14 10 6 6 6 5 8 13 15 17 17 16 16 15 16 17 17 15
7 7 7 8 8 10 11 11 13 13 12 10 8 14 16 17 16 17 17 16 16 16
10 7 4 3 3 6 6 8 11 12 11 11 11 8 5 11 11 13 12 11 12 13
14 12 8 5 1 1 4 3 5 10 10 15 17 17 13 10 7 5 4 4 5 8
13 12 12 9 9 9 8 6 9 16 16 13 15 16 18 16 13 15 14 11 13 14
12 14 14 14 16 15 17 23 19 17 15 15 14 10 12 13 17 15 13 14 13 14

GFSNIL_925_spd_099.txt.gz
Wind_Speed
15 9 7 7 7 6 8 7 7 6 7 6 5 5 5 5 4 3 2 2 2 2
16 13 9 7 6 5 5 9 8 6 6 6 6 6 6 7 7 5 4 4 3 3
16 14 12 9 7 5 5 6 9 8 8 9 9 7 8 7 8 7 6 5 6 5
17 15 14 11 8 6 4 3 4 5 6 6 9 10 10 9 9 9 9 8 6 6
19 17 14 14 12 9 7 7 6 5 6 7 6 7 9 9 8 10 9 9 9 8
17 16 14 14 13 13 11 10 8 9 7 7 7 7 10 9 10 9 9 10 9 8
16 16 13 14 15 13 11 10 8 8 8 7 8 8 8 9 10 11 11 10 11 10
6 11 10 9 9 9 8 7 6 6 7 8 8 7 8 10 10 9 10 10 10 12
12 13 11 10 12 11 10 8 5 4 2 3 4 10 13 13 12 10 11 11 10 9
17 14 14 12 12 14 12 12 10 10 9 5 1 8 11 12 13 13 10 9 9 8
15 13 12 9 6 6 8 9 10 10 10 10 11 3 1 3 2 1 4 4 5 4
10 10 8 7 6 5 5 6 10 14 13 15 15 11 9 8 8 10 10 8 8 8
11 9 9 7 8 6 10 17 17 18 17 16 17 16 16 12 12 11 11 9 10 11
12 12 10 10 10 13 19 19 18 19 19 17 14 12 12 10 13 9 6 7 5 6

GFSNIL_925_spd_102.txt.gz
Wind_Speed
9 9 9 8 5 8 6 6 7 8 7 6 6 6 5 6 7 5 3 3 3 3
12 12 8 3 6 7 6 7 7 7 8 7 8 6 6 6 7 6 5 4 5 6
13 13 12 8 8 6 4 8 9 8 7 8 8 8 8 6 7 6 7 7 5 6
13 11 10 10 10 6 6 6 6 8 8 6 8 10 9 7 6 8 7 6 6 7
16 12 12 11 12 9 8 7 5 6 7 4 5 6 9 7 7 8 7 7 7 7
17 17 14 13 13 11 11 9 8 7 5 6 5 6 7 8 8 7 8 7 7 8
13 17 16 14 13 13 12 12 11 10 9 8 7 7 7 8 8 8 8 8 8 8
6 7 10 11 12 12 12 13 13 11 10 9 8 9 8 8 8 7 8 8 9 10
8 4 6 7 8 8 8 8 8 7 6 5 6 13 15 13 10 9 7 7 6 7
15 14 14 11 8 7 7 7 6 5 5 2 2 7 11 13 11 9 8 6 6 5
15 17 14 12 12 9 8 7 7 7 8 7 5 3 2 4 6 8 8 4 5 4
15 15 15 14 10 8 7 6 9 7 7 8 9 6 8 8 6 7 8 7 6 6
9 8 9 8 9 10 8 14 15 10 9 11 12 10 9 10 7 8 8 7 5 8
10 7 7 7 7 9 14 16 12 12 11 9 9 7 8 9 8 6 5 5 3 3

GFSNIL_925_spd_105.txt.gz
Wind_Speed
9 9 9 9 7 11 11 6 12 8 6 5 5 7 6 8 7 8 4 4 8 10
11 11 7 5 3 13 5 6 8 7 7 7 7 7 6 9 6 5 5 7 6 7
13 10 9 7 10 6 2 1 11 7 7 7 7 7 7 10 10 7 8 8 7 5
13 11 9 8 8 5 3 4 1 4 6 6 8 8 8 10 3 6 7 8 5 6
12 10 12 10 8 7 4 4 5 5 6 7 7 8 9 10 8 8 8 8 7 7
16 17 13 12 11 11 9 8 8 8 7 8 8 7 7 9 8 8 8 7 8 7
13 16 16 13 12 11 11 11 10 10 9 9 10 9 9 9 9 9 9 9 9 8
11 13 13 10 11 12 13 13 13 12 11 9 10 10 11 11 11 10 11 10 8 12
14 9 11 11 11 12 12 13 13 13 12 11 9 8 13 14 10 9 9 10 9 8
12 11 8 6 8 8 7 8 8 7 5 3 4 12 14 16 15 11 9 9 7 9
12 11 10 14 12 9 10 5 6 7 6 4 3 1 4 7 6 9 4 5 3 1
10 11 13 11 9 9 9 6 7 9 6 4 3 1 2 5 5 5 5 5 6 5
9 11 11 12 10 6 6 9 14 9 4 4 4 4 3 3 3 5 5 6 7 5
11 9 8 7 5 10 11 16 14 8 6 5 5 4 5 4 5 6 2 4 5 5

GFSNIL_925_spd_108.txt.gz
Wind_Speed
9 9 7 10 1 3 4 11 10 12 7 5 5 5 4 5 6 5 6 8 11 16
9 6 2 6 14 12 23 14 13 12 9 8 5 6 5 7 7 7 4 7 10 11
13 9 7 5 3 2 11 7 11 5 6 6 7 6 7 8 8 7 6 6 9 5
19 17 11 8 8 7 8 3 2 3 5 4 5 8 8 10 5 5 5 5 8 7
19 18 18 13 7 6 7 5 6 5 6 7 8 9 8 8 7 10 7 6 7 7
15 17 12 18 13 13 9 6 7 9 8 9 9 9 7 8 7 6 7 8 6 8
16 14 15 11 13 15 16 14 12 10 10 9 9 8 9 8 9 8 6 7 7 8
13 13 11 12 13 12 10 13 12 10 9 9 7 11 11 11 9 9 10 10 8 7
12 16 12 10 10 10 9 8 8 10 10 7 8 9 7 10 9 7 9 10 10 9
13 15 14 11 9 8 7 8 6 5 4 7 8 9 9 11 12 11 7 8 8 6
11 10 6 6 4 7 9 7 6 10 9 1 3 5 8 7 7 6 4 1 2 4
8 7 6 6 6 6 10 8 11 9 6 1 5 5 3 0 4 6 6 4 7 2
12 10 8 8 8 7 10 15 12 8 2 2 1 1 3 3 8 6 8 10 7 7
10 9 8 6 6 5 9 12 11 6 2 2 2 4 0 4 9 11 12 12 9 7

GFSNIL_925_spd_111.txt.gz
Wind_Speed
12 15 8 16 12 10 14 7 6 9 9 10 6 7 3 5 5 6 6 6 11 11
14 12 17 16 10 16 12 6 8 9 10 8 6 5 4 3 3 4 7 3 9 9
17 15 13 15 14 10 10 13 11 12 13 12 10 7 7 5 3 6 4 5 4 7
20 16 14 11 9 8 14 10 15 12 9 11 8 9 8 6 7 4 5 3 1 3
22 20 20 19 15 14 18 11 14 17 13 11 9 8 8 6 5 7 8 7 3 4
30 26 25 23 21 19 18 14 12 10 10 11 10 9 9 6 6 7 5 9 7 6
28 27 25 25 22 22 23 16 12 12 11 11 9 9 9 7 5 7 7 4 3 6
29 16 11 14 17 18 21 19 13 11 10 8 9 10 8 11 8 8 8 7 6 6
21 23 17 16 9 14 11 13 12 11 8 7 5 6 4 5 10 8 8 7 5 5
15 15 15 16 17 15 17 12 12 10 9 9 7 9 8 6 9 7 5 6 5 4
17 15 11 10 10 13 15 18 19 14 7 4 2 6 6 6 5 7 5 4 4 4
12 10 9 8 7 7 11 15 14 11 10 5 1 2 2 3 7 8 7 6 6 4
11 12 10 10 10 12 15 17 15 13 8 5 2 2 4 4 9 13 13 11 10 8
16 14 13 12 12 13 16 15 12 9 6 4 5 6 7 11 12 12 13 12 11 8

GFSNIL_925_spd_114.txt.gz
Wind_Speed
14 14 11 14 15 15 15 11 10 12 10 9 7 6 5 4 2 1 3 2 5 5
16 14 12 16 10 14 13 13 10 14 12 9 9 6 7 5 3 3 1 4 4 6
21 16 13 14 15 16 17 13 11 14 12 13 11 10 9 7 5 4 3 2 1 2
22 20 18 16 14 13 12 15 14 12 11 9 8 12 10 10 8 5 7 5 4 3
26 25 23 19 16 13 11 11 10 14 12 11 9 11 13 12 10 10 9 8 7 6
29 28 26 25 22 17 13 13 9 10 13 13 13 13 11 10 9 10 7 9 12 10
31 29 28 25 25 23 19 17 13 11 11 11 12 11 12 13 5 9 8 4 1 6
32 29 29 25 23 21 26 22 18 13 13 10 10 13 13 10 8 8 6 4 5 4
29 25 23 20 15 19 16 22 19 14 12 11 9 9 7 8 9 10 8 6 5 2
17 20 12 21 19 25 17 16 13 11 9 9 10 11 10 8 7 9 8 8 7 6
19 16 12 11 15 17 19 20 18 11 11 9 6 4 4 6 8 9 10 9 9 7
19 20 15 13 12 14 17 17 18 12 10 11 7 3 1 2 7 11 11 10 8 6
19 14 13 13 11 11 13 15 16 16 13 8 3 3 1 5 11 13 13 11 9 9
17 16 14 13 11 13 15 16 16 14 10 6 5 4 2 6 12 14 15 13 11 9

GFSNIL_925_spd_117.txt.gz
Wind_Speed
19 17 16 15 14 17 18 16 13 13 13 11 9 7 7 5 4 3 4 3 2 4
20 19 19 14 16 16 16 16 13 12 13 11 11 9 9 8 6 7 6 4 5 7
25 21 18 17 18 13 14 13 15 12 16 13 11 10 10 9 7 6 6 7 4 5
27 23 18 18 18 14 13 14 14 12 13 14 13 11 11 11 10 9 7 8 7 7
26 24 21 19 16 15 13 12 14 15 14 14 11 10 13 11 11 11 11 9 8 8
26 26 25 22 19 18 14 12 11 12 15 14 11 11 10 11 11 11 11 11 13 13
30 28 27 25 23 21 19 15 15 11 10 12 12 12 11 11 9 5 11 10 9 9
32 31 26 26 25 24 22 19 16 13 12 12 11 11 11 12 14 13 15 12 10 9
30 30 25 25 26 23 22 15 16 14 12 11 9 8 10 10 11 15 15 13 11 10
28 27 21 20 19 25 17 15 20 16 15 13 11 9 8 8 7 9 13 13 12 10
22 21 18 18 14 17 18 23 24 20 11 11 8 6 6 6 8 8 9 10 11 9
18 16 20 21 16 9 18 22 19 21 20 14 10 9 4 2 6 8 7 5 4 5
18 17 17 13 10 14 17 15 18 18 14 12 11 9 6 7 12 13 12 7 4 6
12 15 10 10 11 10 9 13 15 13 10 10 8 6 10 12 12 13 13 13 14 11

GFSNIL_925_spd_120.txt.gz
Wind_Speed
20 19 18 17 16 14 16 16 14 13 11 10 9 8 8 7 7 6 6 5 4 4
21 20 19 16 16 17 16 16 14 14 14 14 13 12 10 10 8 9 8 7 8 8
24 21 19 17 17 16 15 15 16 15 13 15 15 14 13 11 10 9 8 8 5 4
26 23 20 18 17 15 13 13 14 15 16 16 16 14 13 12 11 10 9 9 10 9
27 25 23 21 17 17 16 12 12 16 15 13 15 15 16 14 13 12 11 10 11 9
29 27 26 23 19 17 16 13 11 12 15 16 15 15 14 15 14 13 13 11 11 10
32 30 28 25 23 21 18 16 13 13 12 13 15 15 14 15 13 13 12 11 9 8
35 31 28 26 26 23 22 20 17 13 13 11 13 14 16 13 12 14 13 12 10 9
34 31 29 27 26 24 23 20 19 18 14 13 11 12 13 11 13 17 16 13 12 12
29 30 28 27 27 26 24 21 19 16 13 16 12 10 7 7 10 9 14 15 15 12
11 19 29 28 24 20 20 15 14 12 14 18 14 8 5 7 9 9 9 11 15 13
14 16 18 20 23 16 15 11 11 18 19 22 20 17 11 6 5 6 8 7 10 10
12 16 18 16 16 13 11 7 9 16 17 19 17 15 12 12 7 8 7 7 6 6
15 11 12 14 10 8 8 10 12 13 13 11 10 10 13 13 12 15 14 11 8 6